Zurück zum Katalog

FOX-1

AktivAmateurfunkLEO
NORAD 40967·PAYLOAD·🇺🇸 United States

Gestartet Oct 8, 2015 von Vandenberg Space Force Base

Loading…

Nächste Überflüge (nächste 24 Stunden)

TLE

AktuellSource: Space-Track

Epoche: Sep 13, 2026, 11:25 UTC

1 40967U 15058D   26256.47575324  .00001376  00000-0  12992-3 0  9996
2 40967  64.7758   4.5067 0138042  23.5236 337.2107 14.91385543126731

Verfolge FOX-1 in Echtzeit mit AllMySat

Download on the App Store